Regional Weather Roundup
Issued by NWS

Home | Current Version | Previous Version | Graphics & Text | Print | Product List | Glossary On
Versions: 1 2 3 4 5 6 7 8 9 10 11 12 13 14 15 16 17 18 19 20 21 22 23 24 25 26 27 28 29 30 31 32 33 34 35 36 37 38 39 40 41 42 43 44 45 46 47 48 49 50
308
ASUS43 KBIS 011102
RWRND

NORTH DAKOTA REGIONAL WEATHER ROUNDUP
NATIONAL WEATHER SERVICE BISMARCK ND
600 AM CDT SAT OCT 01 2016

NOTE: "FAIR" INDICATES FEW OR NO CLOUDS BELOW 12,000 FEET WITH NO
SIGNIFICANT WEATHER AND/OR OBSTRUCTIONS TO VISIBILITY.


NDZ001>003-009>011-017-011200-
NORTHWEST NORTH DAKOTA

CITY           SKY/WX    TMP DP  RH WIND       PRES   REMARKS
WILLISTON      CLEAR     47  44  90 NE5       29.98S
MINOT          CLEAR     46  44  93 CALM      30.01S
MINOT AFB      CLEAR     45  44  96 E5        30.00F
$$

NDZ018>021-031>035-040>046-011200-
SOUTHWEST NORTH DAKOTA

CITY           SKY/WX    TMP DP  RH WIND       PRES   REMARKS
BISMARCK       PTCLDY    55  45  68 SE10      30.02F
DICKINSON      CLEAR     47  43  86 SE6       29.98S
GARRISON         N/A     53  47  79 SE8       30.01F
HETTINGER ARPT   N/A     44  42  93 CALM      30.00F
$$

NDZ004>008-012>016-024-026-027-054-011200-
NORTHEAST NORTH DAKOTA

CITY           SKY/WX    TMP DP  RH WIND       PRES   REMARKS
GRAND FORKS    MOCLDY    52  47  83 SE3       30.15S
GRND FRKS AFB  LGT RAIN  54  48  82 CALM      30.15S
DEVILS LAKE    PTCLDY    55  48  77 SE13      30.10F
$$

NDZ022-023-025-028>030-036>039-047>053-011200-
SOUTHEAST NORTH DAKOTA

CITY           SKY/WX    TMP DP  RH WIND       PRES   REMARKS
FARGO          MOCLDY    54  49  83 SE9       30.15F
JAMESTOWN      PTCLDY    51  46  83 SE9       30.10F
$$





USA.gov is the U.S. government's official web portal to all federal, state and local government web resources and services.